Weather History for Decatur, AL

Change the Weather History Date:

Wednesday, October 24, 2012

  Actual Average Record
Temperature  
Mean Temperature 63 °F -  
Max Temperature 81 °F 71 °F 84 °F (2010)
Min Temperature 46 °F 46 °F 28 °F (1981)
Degree Days  
Heating Degree Days 2    
Growing Degree Days 13 (Base 50)    
Moisture  
Dew Point 52 °F    
Average Humidity 73    
Maximum Humidity 100    
Minimum Humidity 39    
Precipitation  
Precipitation 0.00 in - - ()
Sea Level Pressure  
Sea Level Pressure 30.10 in    
Wind  
Wind Speed 1 mph (SSE)    
Max Wind Speed 6 mph    
Max Gust Speed -    
Visibility 9 miles    
Events      
Averages and records for this station are not official NWS values.
T = Trace of Precipitation, MM = Missing Value Source: NWS Daily Summary

Daily Weather History Graph

Daily Weather History Graph

Search for Another Location

Airport:

Trip Planner

Search our weather history database for the weather conditions in past years. The results will help you decide how hot, cold, wet, or windy it might be!

Date:

Astronomy

Oct. 24, 2012 Rise Set
Actual Time 7:01 AM CDT 6:01 PM CDT
Civil Twilight 6:35 AM CDT 6:27 PM CDT
Nautical Twilight 6:06 AM CDT 6:57 PM CDT
Astronomical Twilight 5:36 AM CDT 7:26 PM CDT
Moon 3:07 PM CDT (10/24) 2:07 AM CDT (10/24)
Length of Visible Light 11h 51m
Length of Day
11h 00m
Waxing Gibbous, 76% of the Moon is Illuminated
Oct 24
Waxing Gibbous
Oct 29
Full
Nov 6
Last Quarter
Nov 13
New
Nov 20
First Quarter

Hourly Weather History & Observations

Time (CDT) Temp. Heat Index Dew Point Humidity Pressure Visibility Wind Dir Wind Speed Gust Speed Precip Events Conditions
1:53 AM 50.0 °F - 48.0 °F 93% 30.11 in 9.0 mi Calm Calm - N/A   Clear
2:53 AM 48.0 °F - 48.0 °F 100% 30.11 in 7.0 mi Calm Calm - N/A   Clear
3:53 AM 48.0 °F - 46.0 °F 93% 30.13 in 7.0 mi Calm Calm - N/A   Clear
4:53 AM 48.0 °F - 46.0 °F 93% 30.13 in 8.0 mi Calm Calm - N/A   Clear
5:53 AM 46.0 °F - 45.0 °F 96% 30.14 in 7.0 mi Calm Calm - N/A   Clear
6:53 AM 46.9 °F - 44.1 °F 90% 30.16 in 10.0 mi Calm Calm - N/A   Clear
7:53 AM 50.0 °F - 48.9 °F 96% 30.17 in 7.0 mi Calm Calm - N/A   Clear
8:53 AM 59.0 °F - 54.0 °F 83% 30.17 in 10.0 mi ESE 3.5 mph - N/A   Clear
9:53 AM 66.9 °F - 55.0 °F 66% 30.17 in 10.0 mi Calm Calm - N/A   Clear
10:53 AM 73.0 °F - 53.1 °F 49% 30.16 in 10.0 mi SSW 5.8 mph - N/A   Clear
11:53 AM 75.9 °F - 54.0 °F 46% 30.14 in 10.0 mi SW 3.5 mph - N/A   Clear
12:53 PM 77.0 °F - 53.1 °F 43% 30.11 in 10.0 mi Variable 3.5 mph - N/A   Clear
1:53 PM 78.1 °F - 53.1 °F 42% 30.09 in 10.0 mi Calm Calm - N/A   Clear
2:53 PM 79.0 °F - 53.1 °F 40% 30.06 in 10.0 mi SSE 5.8 mph - N/A   Clear
3:53 PM 80.1 °F 79.9 °F 53.1 °F 39% 30.06 in 10.0 mi Variable 3.5 mph - N/A   Clear
4:53 PM 78.1 °F - 52.0 °F 40% 30.05 in 10.0 mi South 4.6 mph - N/A   Unknown
5:53 PM 72.0 °F - 55.9 °F 57% 30.05 in 10.0 mi Calm Calm - N/A   Clear
6:53 PM 64.0 °F - 55.9 °F 75% 30.06 in 10.0 mi Calm Calm - N/A   Clear
7:53 PM 59.0 °F - 55.0 °F 87% 30.07 in 10.0 mi Calm Calm - N/A   Clear
8:53 PM 61.0 °F - 55.9 °F 83% 30.07 in 10.0 mi East 4.6 mph - N/A   Clear
9:53 PM 57.9 °F - 55.0 °F 90% 30.07 in 10.0 mi Calm Calm - N/A   Clear
10:53 PM 55.9 °F - 54.0 °F 93% 30.06 in 10.0 mi Calm Calm - N/A   Clear
11:53 PM 55.0 °F - 53.1 °F 93% 30.06 in 10.0 mi Calm Calm - N/A   Clear